Wind_Gust
13 12 9 12 14 18 17 16 19 18 21 24 26 25 30 23 23 27 24 22 20 17 19 15 15 23 26 15 18 19 27 23 15 28 21 26 16 21 23 24 22 23 24 23 22 21 22 21 23 24 24 25 24 24 23 24 24 24 22 22 22 22 22 22 23 23 23 22 22 22 22 22 22 22 22 22 22 21 20 21 22 22 22 22 23 22 22 22 22 22 22 22 22 21 20 19 18
17 12 12 13 17 17 20 16 26 18 23 27 28 24 24 23 24 25 25 22 25 14 12 14 24 19 19 23 23 19 25 26 19 19 16 20 20 24 23 25 23 25 24 22 23 21 22 21 22 23 23 24 24 23 24 24 24 23 23 22 22 22 21 21 23 22 22 22 22 22 22 22 22 22 21 21 21 20 20 21 22 22 22 22 22 22 21 22 21 21 21 21 21 20 19 18 17
18 18 17 16 18 21 21 20 29 23 24 28 27 28 21 24 23 25 22 21 16 19 16 17 19 20 23 20 15 17 10 20 23 21 19 20 23 19 22 23 23 23 25 24 22 22 19 20 21 22 23 23 24 24 24 24 25 24 23 22 22 22 21 21 22 22 22 22 21 21 22 22 22 21 21 21 21 20 20 20 21 21 21 21 21 21 21 21 21 20 20 20 20 20 18 17 16
17 18 21 15 21 21 24 22 24 26 28 26 28 23 28 24 21 18 23 19 13 16 17 18 20 21 20 21 18 21 19 15 20 20 26 23 23 24 26 25 23 22 21 22 22 21 19 20 21 21 22 23 24 24 24 25 24 24 23 23 22 21 21 21 21 21 22 21 21 20 21 21 21 20 21 21 20 19 19 20 20 21 21 21 21 21 21 20 20 20 19 19 19 19 18 16 15
17 18 19 22 22 23 25 27 26 27 31 27 28 23 22 20 22 20 20 23 14 11 14 19 25 15 13 24 24 22 14 20 19 15 25 18 25 27 28 25 22 22 22 19 19 21 19 23 22 21 21 24 23 24 25 25 24 23 23 23 22 22 21 21 21 21 21 21 20 20 20 21 20 20 20 21 21 20 19 19 19 20 20 20 21 21 20 19 19 19 19 19 18 18 17 15 14
17 19 18 19 26 20 30 26 25 27 28 30 28 24 16 21 24 23 21 20 18 13 12 19 22 17 15 16 18 24 27 23 18 19 25 24 28 28 27 23 23 22 21 20 17 18 22 23 24 23 22 22 24 23 24 25 24 24 23 23 22 22 21 21 21 21 21 21 20 20 20 20 21 20 20 21 21 20 19 19 18 18 19 20 20 21 20 19 20 20 19 19 18 17 15 14 13
18 18 22 21 26 24 26 26 28 28 27 26 31 28 24 20 22 21 24 25 21 19 13 23 18 17 17 22 21 15 20 23 20 24 20 27 27 26 24 24 23 22 20 19 18 22 25 23 23 23 22 22 23 24 24 24 24 23 22 22 22 22 21 21 21 21 21 21 20 20 20 20 20 21 20 20 20 20 19 19 18 17 17 18 19 20 20 20 19 20 19 18 17 16 14 13 12
18 21 18 23 24 24 28 29 32 30 28 28 28 26 25 23 22 24 25 20 16 17 12 18 14 18 17 12 24 16 20 21 25 26 26 28 26 25 24 24 24 22 20 20 19 21 24 23 23 22 22 22 23 23 24 24 24 23 23 22 22 22 22 21 21 21 21 20 20 20 20 20 20 21 20 20 20 19 19 19 18 18 17 17 17 18 19 19 19 19 18 16 15 15 14 12 13
20 22 19 26 26 27 26 30 31 29 31 30 31 31 26 26 23 22 22 26 20 13 16 15 18 24 21 30 23 24 30 26 27 26 23 26 26 24 26 24 26 23 22 20 20 23 21 21 22 22 21 21 23 24 24 23 24 23 23 22 22 21 21 21 21 21 20 20 19 19 19 19 20 20 20 20 20 19 19 19 18 18 17 17 18 18 18 18 18 18 17 16 15 14 13 12 12
23 22 23 29 22 28 27 29 30 27 30 26 28 28 27 27 24 22 23 24 28 16 17 23 20 22 21 26 29 18 25 28 27 28 28 27 25 22 22 23 26 28 24 23 21 21 22 25 23 22 21 21 21 22 23 22 23 24 23 22 21 21 21 21 20 20 19 19 18 19 19 19 19 19 20 19 19 19 19 19 19 18 18 17 17 18 18 18 18 18 17 17 16 14 13 11 11
28 25 22 26 26 28 29 26 26 23 27 27 25 24 22 24 25 27 23 25 24 22 19 22 28 26 23 23 23 26 28 28 27 25 25 26 19 21 21 21 24 27 28 27 26 24 24 25 28 24 23 22 21 21 20 21 22 22 22 22 22 22 21 21 21 21 20 19 19 19 19 19 19 19 19 19 19 19 19 19 19 19 18 17 17 18 18 18 18 17 17 16 15 14 12 11 10
25 24 25 27 27 26 26 28 26 27 26 26 29 22 17 22 23 25 23 25 24 21 22 15 32 36 22 26 23 21 25 26 29 26 23 20 19 16 16 18 19 22 27 26 24 24 25 26 28 29 27 25 23 21 21 21 20 21 22 22 21 21 21 21 21 20 20 20 19 20 20 19 19 19 19 19 18 19 18 18 19 19 18 17 17 18 18 18 18 17 16 15 14 13 12 11 10
27 20 24 27 26 26 26 29 26 26 26 22 23 28 20 22 24 27 21 16 14 17 30 27 28 34 22 19 23 22 24 23 29 24 21 18 19 17 17 19 26 21 23 22 26 26 27 26 28 28 25 27 22 21 21 21 21 21 21 21 21 21 21 22 21 22 21 21 20 20 20 19 19 19 20 19 19 18 18 18 18 19 18 17 17 18 18 18 18 17 16 15 14 12 12 11 10
27 24 22 29 23 26 26 25 25 26 25 22 21 23 29 25 19 17 17 19 19 16 17 19 32 29 26 26 22 23 24 28 30 28 22 18 19 18 19 19 19 23 26 22 22 24 25 26 26 26 27 24 22 21 20 23 22 21 21 21 21 21 22 22 21 22 21 21 22 21 21 20 20 20 19 19 19 18 18 17 17 18 18 18 17 17 17 18 18 17 16 15 13 12 11 10 10
26 20 25 26 27 24 23 31 23 25 26 20 27 24 26 24 23 17 22 15 18 14 23 21 28 21 17 23 22 27 25 26 27 25 23 20 16 18 17 17 17 19 19 23 22 23 25 25 23 23 22 21 24 19 19 24 24 23 21 21 21 22 22 22 23 22 23 23 23 23 23 23 21 21 21 20 20 20 19 18 17 17 18 18 17 17 17 18 18 17 16 14 13 11 11 10 9
23 23 24 25 26 25 26 26 20 24 26 21 24 27 22 20 28 16 22 16 20 20 20 25 21 27 27 32 30 27 27 28 27 28 25 21 15 16 21 16 15 19 17 24 25 21 25 25 22 21 21 21 18 18 20 22 23 25 23 23 22 22 23 23 24 24 25 26 25 25 25 23 20 19 22 20 20 20 20 16 17 16 17 18 17 17 17 17 17 17 16 14 13 11 11 10 8
17 21 25 25 26 23 22 26 21 29 23 23 21 29 24 21 20 16 18 16 18 17 24 20 26 20 20 24 30 31 25 26 26 29 26 19 15 14 17 14 14 13 18 21 21 22 22 23 21 19 19 21 19 19 18 21 25 25 23 24 24 23 23 25 25 26 25 23 23 23 23 20 15 15 17 14 18 16 17 19 18 18 17 18 17 17 17 17 17 17 15 14 13 12 11 9 8
19 25 24 25 22 24 19 25 23 20 26 32 20 21 22 19 22 21 19 24 16 20 26 30 28 22 20 26 26 29 29 28 26 29 24 20 13 17 14 13 14 14 14 16 19 16 23 24 24 22 21 23 23 20 22 21 22 22 21 22 22 23 22 22 23 20 19 20 21 23 17 17 15 14 13 14 12 15 17 20 19 19 18 18 17 17 16 16 17 16 15 14 13 11 13 10 7
22 21 23 24 22 24 21 23 22 19 21 32 24 22 18 20 18 22 20 20 19 21 20 20 28 27 23 20 30 28 28 26 21 22 28 23 19 18 16 14 13 12 13 13 16 16 20 23 24 24 22 22 22 20 23 18 23 19 22 23 22 19 20 22 19 21 20 19 20 19 15 15 16 15 13 16 13 15 16 19 19 19 18 19 17 17 17 17 17 16 16 14 13 13 11 7 6
21 22 23 22 21 24 24 20 18 22 25 21 23 20 19 19 20 18 16 18 19 16 20 19 21 19 21 23 21 27 26 24 22 18 18 18 18 19 16 14 11 10 12 15 17 17 19 23 25 24 23 25 25 21 20 21 20 20 20 20 21 19 19 20 18 18 19 20 19 15 13 14 15 14 17 22 17 15 15 17 19 19 19 19 19 14 16 15 16 16 14 14 10 7 7 4 8
20 23 24 24 22 12 20 15 18 19 23 23 20 19 16 17 16 16 12 16 18 18 18 20 27 24 24 27 31 23 22 25 18 16 14 14 14 15 16 17 16 15 12 13 13 13 21 20 25 25 25 25 23 21 22 22 21 21 21 21 20 20 19 17 18 17 17 20 19 15 18 13 14 15 15 13 14 16 14 12 14 13 12 12 16 11 12 16 12 13 14 11 9 9 9 5 6
20 17 16 19 27 23 17 20 16 15 17 17 19 18 19 18 18 17 17 20 21 20 20 14 15 21 30 28 25 22 23 22 18 19 18 15 16 14 13 14 16 18 15 17 18 15 16 22 21 23 27 24 23 22 24 22 23 22 21 23 22 21 20 19 18 18 16 19 18 18 16 14 14 16 16 14 16 15 15 14 14 13 13 13 14 12 13 13 12 13 13 13 11 10 8 6 6
21 18 18 21 26 25 12 15 17 16 17 18 19 18 18 16 18 16 17 18 17 17 20 19 20 18 25 23 25 20 20 15 15 17 14 13 13 16 18 20 20 19 17 19 17 18 14 20 22 22 23 25 23 21 20 22 22 19 20 22 24 23 21 21 20 18 17 18 16 17 16 16 15 16 17 15 15 15 15 14 14 14 13 14 13 12 12 14 12 13 12 12 11 10 10 11 10
12 23 19 22 18 17 13 19 15 13 14 13 18 16 20 18 17 14 19 18 20 21 19 19 19 14 15 20 13 16 13 15 12 13 16 19 19 21 21 21 18 17 16 13 10 10 16 16 19 23 22 22 24 23 21 20 19 19 18 21 22 22 22 22 20 19 18 20 16 18 16 16 15 18 18 16 15 15 15 15 14 14 13 14 14 12 13 13 13 13 13 14 13 14 12 12 14
20 23 19 22 21 12 13 18 17 14 12 14 12 17 18 17 18 17 20 19 18 10 16 15 20 20 19 15 12 11 9 8 10 10 8 9 21 20 16 15 13 12 13 11 15 19 19 20 19 22 21 21 21 21 19 21 22 22 19 18 17 17 19 19 20 19 20 21 18 19 17 17 16 19 18 17 15 16 15 15 15 15 13 14 14 12 14 14 13 12 14 16 14 11 14 11 15
18 21 23 18 12 14 8 13 15 16 16 12 16 17 16 18 17 21 17 20 19 13 20 15 18 18 14 12 10 10 12 8 7 9 12 13 19 18 15 16 16 14 13 15 16 18 20 16 15 19 24 22 21 20 22 21 20 20 22 21 19 18 16 17 16 18 18 21 20 18 18 16 17 18 18 18 16 16 16 15 14 15 14 14 14 13 13 14 14 11 14 14 19 16 15 13 15
14 17 15 16 13 14 15 15 14 14 16 14 19 16 19 15 15 21 16 19 15 20 22 19 17 14 12 12 14 12 14 12 10 11 13 13 19 17 14 12 12 15 16 17 17 21 19 18 21 24 21 22 24 20 20 20 22 21 22 18 17 18 17 16 17 18 17 19 19 16 15 16 18 16 19 19 14 17 18 15 15 14 15 14 15 13 11 15 14 12 14 14 13 15 13 12 15
12 14 17 18 17 17 17 17 18 14 17 15 20 21 18 21 19 19 17 15 17 14 16 16 13 12 14 12 12 12 13 13 12 12 14 16 17 17 13 13 12 15 13 14 13 18 26 24 19 19 18 18 17 20 20 23 23 21 21 21 20 19 17 18 17 17 17 18 19 15 16 16 17 15 20 19 16 17 19 16 16 14 17 13 16 14 12 16 15 14 12 13 13 12 13 11 14
14 14 19 17 20 26 17 20 19 15 19 13 15 16 17 18 23 19 20 18 18 16 12 11 14 12 12 17 24 27 23 20 13 12 11 15 13 14 18 14 16 16 14 17 16 17 23 20 20 22 21 19 17 17 18 19 22 22 23 22 23 23 20 18 18 19 16 18 19 17 18 17 16 17 20 19 19 17 19 17 17 15 17 14 15 15 14 16 13 13 13 11 12 12 12 12 13
14 16 18 18 21 24 20 15 13 12 10 9 11 21 20 24 21 21 23 20 17 16 13 12 11 11 20 24 28 31 30 29 28 18 14 10 9 12 14 14 17 17 18 16 16 16 16 18 22 21 20 20 19 19 20 19 23 23 19 21 23 25 24 22 17 15 18 17 19 18 17 18 18 16 18 19 18 17 18 18 17 15 16 13 16 14 15 16 13 12 14 11 12 14 13 11 12
19 14 18 20 19 23 22 20 12 13 19 12 11 20 20 23 24 22 22 25 14 11 11 10 16 24 24 24 24 27 24 25 26 26 19 17 12 17 18 17 18 21 25 24 19 19 20 22 23 23 23 20 19 17 19 19 18 22 20 22 23 23 25 24 21 21 20 16 18 20 17 17 20 16 18 19 20 17 19 17 18 17 16 15 16 13 16 14 13 14 11 12 12 13 13 11 13
18 19 20 23 21 24 24 17 18 15 19 12 14 20 18 16 21 20 16 16 14 11 18 24 25 25 24 23 21 23 20 25 31 26 19 18 16 18 20 19 21 23 23 21 19 20 22 23 24 21 22 20 19 18 19 19 20 19 19 17 17 22 23 24 25 23 22 23 18 19 17 16 18 17 18 18 19 16 19 19 17 15 15 15 13 13 14 15 13 14 11 12 12 12 13 10 11
21 15 18 12 17 14 20 12 16 15 12 11 12 17 21 13 13 17 23 15 19 27 27 24 20 24 26 24 21 19 28 24 30 30 25 19 15 16 18 20 26 21 17 16 18 17 19 25 26 21 21 19 19 19 17 16 20 23 22 19 23 21 22 20 23 24 26 24 22 22 21 19 17 17 16 17 17 17 17 19 16 15 14 14 12 14 15 14 13 15 9 11 14 14 13 12 10
19 16 13 19 14 10 15 18 18 12 11 15 14 22 13 13 17 27 25 19 31 31 29 26 21 22 19 18 19 23 23 25 23 26 23 21 20 19 18 22 25 19 18 18 20 26 27 23 20 22 17 18 19 19 17 18 18 17 16 17 15 20 19 21 20 22 22 23 24 22 24 25 23 24 25 21 20 17 16 17 16 15 14 14 13 12 15 14 13 14 12 9 12 14 12 12 12
17 13 12 14 11 13 18 14 18 12 16 16 13 18 15 20 25 30 31 30 32 25 22 23 21 20 20 22 23 20 22 24 21 24 26 22 19 15 17 21 24 16 14 15 18 16 13 10 11 14 16 18 18 17 17 17 16 12 11 13 14 17 19 22 23 22 20 23 22 22 23 24 23 24 23 22 22 23 21 24 24 17 16 15 14 13 14 14 14 14 13 11 10 12 15 12 14
16 15 14 13 12 14 21 11 15 13 12 18 16 17 16 18 19 30 31 27 27 20 18 19 22 28 23 20 20 19 20 24 25 14 18 22 19 19 19 15 20 15 13 6 9 9 9 7 8 9 12 15 14 15 17 16 15 17 19 16 16 18 18 18 23 23 22 22 21 21 21 23 22 23 23 23 21 21 21 21 25 24 21 15 16 15 13 13 15 12 12 11 12 9 11 12 14
17 14 15 16 19 16 14 17 18 20 20 13 17 19 21 20 17 18 28 28 29 27 26 25 20 20 20 20 22 22 21 21 26 17 18 21 21 21 17 19 13 14 12 10 8 8 7 8 8 11 10 13 15 17 17 20 20 16 14 21 23 21 21 18 16 21 24 21 22 21 19 22 24 24 22 22 21 22 25 25 23 24 21 21 15 16 14 15 15 14 14 10 13 11 12 9 12
16 16 17 19 17 12 19 25 22 16 14 14 17 22 19 23 22 22 29 24 33 27 23 25 21 18 18 20 24 25 22 21 23 24 22 21 23 19 17 16 15 13 13 13 10 9 7 7 8 8 7 8 11 12 14 14 16 21 17 17 17 14 16 19 20 17 17 23 22 20 18 22 25 25 24 21 23 25 25 26 24 23 23 21 21 12 12 14 15 12 13 13 10 14 14 10 14
16 17 18 18 11 16 15 19 22 19 19 13 19 22 20 24 23 20 22 21 19 27 23 23 23 23 22 21 21 20 21 21 20 20 21 20 17 17 16 17 18 14 9 10 10 10 10 9 8 7 9 10 10 11 13 17 14 17 21 16 20 22 14 14 16 16 15 15 19 22 21 24 24 24 24 25 23 25 25 26 27 24 22 22 23 18 13 14 13 14 12 14 11 9 12 11 14
17 21 17 11 14 19 13 14 19 16 15 16 15 19 18 26 23 22 21 16 22 21 23 22 19 20 20 21 20 20 21 23 19 19 17 16 17 16 16 17 16 17 17 12 12 12 9 11 11 9 9 9 11 11 13 8 17 17 18 15 13 13 16 14 12 10 12 12 13 15 21 24 24 22 22 22 23 23 24 24 25 21 21 20 20 20 15 15 13 12 13 14 12 12 17 13 13
16 23 20 20 13 21 21 18 20 17 17 16 17 17 21 26 23 22 20 20 20 20 20 18 18 16 18 18 18 18 20 18 21 19 19 14 16 15 16 15 16 17 17 15 16 13 10 11 10 10 11 13 12 12 12 10 12 15 14 10 15 14 14 14 13 10 13 13 10 12 16 21 23 22 23 22 22 21 20 21 21 20 19 20 21 21 17 16 15 12 13 13 14 14 14 15 11
13 8 15 19 18 18 15 16 18 16 10 14 15 11 13 17 13 16 15 15 17 18 19 19 17 20 20 20 18 18 18 16 18 17 20 19 20 20 18 17 18 17 18 18 15 14 13 15 11 12 10 11 12 12 13 15 13 18 16 15 17 15 16 18 20 21 19 18 21 14 11 14 18 21 22 21 21 20 20 22 22 19 19 19 20 20 16 15 16 15 15 14 14 13 18 14 14
13 12 11 16 18 17 17 18 17 12 13 13 11 11 10 12 11 16 16 14 16 13 17 18 18 18 18 21 21 19 19 19 18 17 19 22 20 20 20 19 19 19 19 19 18 15 16 17 15 13 12 13 12 11 13 16 15 18 22 16 20 20 18 16 20 18 18 16 12 15 17 16 17 19 20 22 20 19 19 19 20 19 18 17 16 16 17 17 18 17 16 15 16 14 14 19 14
12 10 13 17 18 18 16 15 13 18 13 14 19 16 17 11 12 9 11 14 13 14 15 16 16 17 16 16 18 16 19 19 20 17 19 18 19 19 19 18 16 19 17 18 19 18 17 16 16 15 14 12 15 14 15 15 17 19 18 19 19 21 19 19 19 15 14 15 17 16 15 15 16 17 21 21 20 20 21 18 17 16 16 18 17 17 16 16 17 16 15 16 15 15 15 17 14
17 12 14 15 15 13 18 16 13 15 15 9 13 21 18 11 10 12 14 12 16 14 14 14 17 18 17 16 18 18 20 20 20 22 22 21 21 22 20 19 18 17 19 18 18 18 16 15 15 14 16 17 14 13 16 15 15 18 18 17 18 20 20 18 19 17 18 15 12 11 13 15 16 17 22 19 19 18 17 18 17 17 17 17 18 17 15 15 17 16 17 18 17 14 14 14 15
10 13 15 16 15 17 22 20 11 13 13 8 14 28 18 16 10 8 11 13 14 14 14 17 20 18 19 18 18 20 21 20 22 23 24 23 24 24 20 18 19 18 16 17 18 19 19 16 15 15 16 15 13 14 16 19 18 16 17 15 19 19 17 13 14 14 14 12 13 16 16 15 15 17 19 23 21 21 18 19 19 19 18 18 18 19 17 16 17 18 18 16 15 15 14 15 18
19 25 25 22 13 21 24 16 21 12 8 16 23 25 21 11 9 11 10 13 15 14 15 17 18 18 19 17 17 21 21 21 22 23 22 24 23 23 20 22 21 20 19 17 19 21 20 17 15 15 15 16 15 18 16 16 15 14 13 16 18 18 16 17 18 18 15 12 13 13 14 16 17 18 16 23 23 21 20 19 21 20 18 17 18 20 20 21 19 18 16 15 17 18 17 14 13
20 20 21 20 14 15 18 13 15 13 11 22 25 18 16 18 13 13 9 12 15 15 15 18 18 19 19 17 20 19 19 20 22 23 21 21 20 20 20 21 22 20 22 24 20 21 21 19 17 17 17 16 17 17 13 19 16 14 11 13 15 18 21 20 23 21 18 16 14 14 13 16 16 15 18 24 24 25 24 21 21 22 21 20 19 19 18 18 17 18 16 17 17 18 17 18 19
20 16 16 14 7 9 8 11 10 8 10 10 19 23 23 20 15 12 13 14 15 15 17 19 19 19 19 19 20 22 21 21 24 25 24 24 25 24 22 21 22 18 20 20 22 21 21 18 17 16 18 16 22 17 16 16 14 16 16 17 19 24 22 18 18 18 16 18 17 15 14 15 16 18 20 25 25 27 28 23 25 25 24 21 18 17 16 17 17 16 18 18 20 23 26 24 24
17 15 18 12 7 8 8 11 9 15 19 9 21 22 23 17 14 13 15 14 15 15 17 17 18 19 19 19 19 19 20 20 22 21 21 22 23 28 25 22 20 19 18 21 20 21 20 20 18 17 18 17 18 22 26 18 16 18 19 20 18 13 14 17 23 20 18 18 18 20 18 18 18 22 27 32 30 30 29 25 21 24 23 21 20 16 16 18 17 19 21 24 27 29 27 26 25
17 13 17 13 15 14 11 16 9 10 10 15 16 12 17 14 11 9 13 13 16 16 17 16 16 15 14 16 18 18 18 17 17 19 22 21 24 22 24 23 21 20 20 20 19 19 19 19 18 18 19 19 19 19 20 23 21 21 18 15 13 14 15 16 23 23 19 19 18 19 19 21 21 22 25 25 26 27 28 29 22 22 25 24 20 18 18 19 20 20 25 29 29 27 29 29 24
12 18 15 15 15 13 11 12 11 13 13 12 12 13 12 21 17 11 11 13 15 16 19 17 17 18 20 17 16 17 18 21 22 22 24 23 21 19 21 22 23 22 22 20 19 18 17 18 18 18 19 19 20 19 17 18 18 19 21 20 28 29 21 22 25 24 22 20 20 21 22 24 23 22 20 23 23 23 27 26 20 25 25 25 21 19 23 22 20 26 27 27 26 26 27 27 26
18 17 15 13 10 14 8 7 7 9 12 8 17 19 22 18 9 8 10 20 18 14 16 19 19 19 18 17 19 19 20 20 21 22 23 23 24 21 22 22 24 25 25 23 19 18 19 21 19 20 20 19 19 18 18 16 15 14 16 17 26 26 23 23 25 22 24 23 19 21 25 25 21 22 19 16 20 18 16 17 21 20 19 21 21 19 15 17 19 16 21 23 24 21 20 22 23
18 11 14 11 10 14 11 10 7 9 10 13 13 14 10 10 12 18 13 17 18 20 16 17 17 18 19 20 19 22 22 21 22 21 20 20 21 25 25 25 24 26 25 22 19 18 19 19 17 19 19 19 21 19 18 17 13 15 14 17 23 23 22 24 24 23 22 20 20 19 18 21 24 25 20 18 14 17 16 17 19 19 19 19 22 24 24 26 22 24 25 21 21 21 22 20 21
17 12 7 16 8 12 11 12 7 10 10 10 13 19 13 11 10 12 20 18 17 19 16 15 17 18 18 18 19 19 19 19 21 22 22 23 23 25 28 27 28 26 23 22 23 22 21 21 20 16 17 18 19 18 16 17 12 10 15 17 19 21 21 22 22 21 20 22 22 20 22 26 26 20 18 15 17 14 13 16 15 13 20 21 20 22 22 20 21 21 21 20 19 18 19 21 21
13 11 13 10 13 10 10 10 10 13 10 9 11 12 10 14 12 18 18 18 17 16 16 15 16 18 20 20 21 21 21 20 22 23 23 24 26 28 30 28 28 26 23 23 24 23 22 22 21 20 21 20 19 19 18 14 13 14 10 14 15 18 21 21 21 20 22 22 22 21 21 21 24 16 23 22 21 24 22 19 18 17 16 18 21 23 22 22 23 24 25 23 21 18 19 21 20
14 16 12 14 14 8 12 12 11 11 11 11 13 12 14 10 13 16 18 17 20 21 22 15 15 17 18 18 21 20 21 21 22 24 26 27 26 27 30 29 29 26 22 22 24 23 23 21 19 22 23 22 21 21 18 16 14 11 11 10 14 16 17 21 19 21 22 23 20 19 20 18 17 19 21 23 24 26 27 24 22 21 19 19 20 22 18 22 25 26 26 23 22 20 21 21 18
13 11 11 12 9 12 11 9 12 13 14 12 12 15 18 13 12 16 17 17 17 19 21 21 12 14 14 15 16 18 19 19 20 22 23 26 27 30 31 31 28 26 25 24 25 23 22 22 23 24 23 22 24 25 20 19 16 12 10 11 11 12 16 17 19 19 17 19 19 21 21 20 16 18 24 23 23 24 22 21 25 26 23 21 20 19 18 20 22 23 24 24 22 23 22 22 20
Wind_Speed
4 3 2 2 2 1 1 0 0 2 1 1 2 0 4 2 3 5 8 10 6 2 4 5 8 4 1 2 9 5 3 9 4 9 6 5 3 12 12 13 12 12 13 10 10 12 12 14 16 16 16 17 17 17 18 19 18 18 18 17 16 15 15 16 17 17 18 17 17 17 17 16 16 15 15 15 14 14 14 15 16 16 16 17 17 17 17 17 15 15 15 16 17 16 15 15 14
2 2 2 2 1 1 1 0 2 1 2 1 6 1 5 5 1 7 12 10 4 3 1 6 6 11 12 14 12 11 3 2 11 2 1 5 11 10 13 14 14 14 12 11 11 11 11 13 17 16 16 18 17 17 19 19 19 18 18 17 16 16 16 16 16 18 18 17 17 17 16 16 15 14 14 14 13 13 12 15 15 16 16 16 16 16 17 17 15 14 15 15 16 15 14 14 13
1 4 4 3 1 1 1 1 0 1 1 3 6 5 4 6 9 10 11 12 8 9 9 6 13 12 5 8 3 10 3 1 5 2 3 8 13 5 12 13 15 15 14 10 10 13 10 12 17 16 17 18 18 17 18 18 18 18 18 17 17 16 15 16 16 17 17 17 17 16 16 16 15 14 14 14 13 13 12 13 14 15 15 15 15 16 16 16 14 13 14 15 15 14 13 12 11
0 1 2 1 1 1 1 1 2 3 1 5 4 6 5 6 10 10 9 7 9 3 1 0 3 1 8 5 4 8 5 2 5 10 4 7 7 11 13 14 13 11 11 10 10 12 10 14 17 17 17 18 18 18 19 19 19 18 18 18 17 16 15 15 16 17 17 17 16 16 16 15 15 14 14 14 13 12 11 12 13 14 14 15 15 15 15 15 14 12 13 14 14 13 12 11 10
1 0 1 1 2 1 1 2 2 3 3 3 4 6 7 8 12 10 7 10 9 4 0 4 3 3 3 4 2 4 6 1 6 3 5 4 10 13 12 15 13 12 11 11 11 11 12 19 18 17 17 17 18 18 19 19 19 19 18 17 17 16 15 15 15 16 17 17 16 16 15 15 14 14 14 14 13 12 12 11 11 13 14 14 14 14 14 14 13 12 11 12 13 12 11 10 9
1 1 0 2 0 1 1 1 2 3 6 2 3 5 8 6 7 9 13 10 8 7 6 7 7 5 4 3 2 5 11 9 6 2 7 9 15 15 15 14 13 13 12 10 10 10 12 19 19 19 18 18 18 17 18 19 19 19 18 17 17 17 15 15 14 16 16 16 16 15 15 15 14 14 14 13 12 12 11 11 11 12 13 14 14 14 13 13 12 11 10 11 12 11 10 9 9
1 3 1 1 2 1 3 2 5 3 7 3 5 9 11 11 11 12 15 13 14 7 2 3 7 10 4 0 4 1 2 5 7 8 9 16 17 17 16 14 13 13 12 11 10 11 14 18 19 19 18 18 18 17 17 18 18 18 17 17 17 16 15 15 14 14 15 15 15 15 14 14 14 14 13 13 12 12 11 10 10 11 11 13 13 13 13 13 12 11 10 10 11 10 9 9 10
0 2 1 1 1 0 2 3 4 2 5 3 5 9 13 14 13 8 13 8 6 1 4 6 6 7 3 3 6 1 3 1 7 13 17 16 17 16 16 15 14 13 12 10 10 9 17 18 18 17 17 17 17 17 17 17 17 17 18 17 16 16 15 14 14 14 14 15 14 14 13 14 14 13 13 12 12 11 10 10 10 11 11 10 12 13 13 12 12 11 9 10 10 10 9 9 10
2 2 1 4 1 0 2 3 4 2 4 6 9 12 15 13 13 10 14 11 12 5 5 5 12 13 4 8 4 1 2 8 11 16 16 18 18 16 12 13 14 12 13 12 11 11 12 17 17 17 17 17 17 17 16 16 17 17 17 17 16 15 14 14 14 13 13 14 13 12 13 13 13 13 12 12 11 11 11 11 11 11 12 11 11 12 12 12 11 10 9 10 10 9 9 9 10
0 2 1 2 3 2 1 5 2 4 4 6 10 12 11 12 14 15 15 16 18 7 6 4 6 11 11 10 4 4 2 9 14 12 12 14 17 14 15 16 15 16 15 14 13 12 11 20 19 18 18 17 16 16 15 15 15 15 15 16 16 15 14 14 13 12 12 12 11 11 11 11 12 12 12 12 11 10 11 10 11 11 12 12 11 12 12 11 10 9 8 9 9 9 8 8 9
0 1 1 1 1 2 3 5 5 5 7 6 9 7 9 12 12 14 14 15 17 11 2 13 12 13 11 3 1 3 4 6 12 10 6 6 9 12 13 13 15 16 15 17 15 14 13 15 22 19 19 18 17 16 15 14 14 14 13 14 14 14 13 13 12 11 11 11 11 11 10 11 11 11 11 11 11 10 10 11 11 11 11 11 11 12 11 11 10 9 8 8 8 8 8 7 8
1 1 1 2 2 4 3 2 4 7 9 6 8 8 6 9 9 9 13 15 14 3 1 1 4 11 9 6 2 1 3 6 7 8 8 7 7 6 9 8 12 12 13 12 13 12 12 12 13 19 19 18 18 17 15 15 14 14 14 13 13 13 13 12 11 11 11 11 11 10 10 11 11 11 11 11 10 10 10 11 11 11 11 11 11 11 11 10 10 9 8 7 7 7 7 7 8
1 0 2 2 2 2 3 3 6 6 5 6 6 5 8 6 3 7 4 6 4 9 10 16 14 9 4 3 0 3 5 1 5 8 9 9 8 8 8 7 8 10 11 8 8 8 10 10 10 12 13 20 16 16 15 14 13 13 13 13 12 12 13 12 11 10 10 10 10 10 11 10 10 10 10 10 10 10 9 10 10 10 11 11 11 11 11 10 8 8 7 7 6 5 6 6 8
2 3 4 3 0 2 1 3 2 3 6 6 4 5 7 2 5 5 5 9 8 9 1 11 10 16 10 6 2 4 2 3 4 5 8 10 9 10 10 7 5 8 10 11 9 9 8 8 9 9 12 11 10 14 16 16 14 14 14 13 13 12 12 12 11 10 9 9 11 11 11 11 11 10 10 9 9 9 8 9 9 9 10 10 10 11 11 10 8 7 6 6 5 5 5 6 7
4 1 1 1 1 1 2 3 3 4 7 4 4 7 6 4 5 8 15 8 5 1 3 3 9 10 5 9 5 7 8 7 6 4 8 9 10 10 11 8 7 7 7 8 10 10 8 6 7 8 8 8 9 8 8 12 16 15 14 14 14 14 12 12 12 11 11 10 11 11 11 12 11 11 10 9 9 9 9 8 8 8 9 9 9 10 10 10 8 7 6 5 5 4 4 5 7
4 2 1 1 3 2 5 3 3 3 6 3 7 6 5 10 7 7 6 5 3 3 1 1 3 2 12 14 14 13 11 10 7 7 8 10 10 9 9 8 7 7 6 8 8 8 8 6 5 6 8 9 8 8 9 9 13 16 14 14 14 15 14 13 13 12 12 11 11 11 11 9 9 7 10 7 9 10 9 7 8 8 8 9 9 9 9 9 8 7 6 5 5 4 4 4 6
1 2 0 0 5 1 4 2 1 3 4 4 7 9 6 5 8 3 1 5 8 8 14 8 5 4 12 3 16 13 12 9 7 8 8 6 6 7 6 6 5 4 5 6 8 7 8 8 7 5 6 8 8 8 8 9 11 15 13 15 16 16 15 15 14 14 12 11 9 10 10 5 3 3 5 3 8 4 8 9 9 8 8 9 8 9 9 9 8 7 6 5 5 4 4 4 5
2 2 2 1 5 1 2 4 0 1 1 4 6 5 6 9 10 6 5 13 9 8 14 8 14 12 9 11 12 13 11 9 7 8 6 6 5 5 5 4 5 5 4 4 3 8 8 6 7 6 6 7 8 7 6 7 8 12 9 9 9 11 13 13 11 8 9 5 9 6 3 4 3 3 3 6 2 4 6 10 9 9 8 8 8 8 9 8 8 7 6 5 4 4 3 1 3
3 1 3 6 3 6 3 1 3 2 2 2 4 5 5 7 4 6 7 8 8 10 9 7 9 11 15 14 14 13 12 10 7 7 6 6 6 5 3 3 4 5 4 3 3 5 7 7 7 7 7 7 7 8 7 7 8 8 9 9 8 11 10 9 8 9 7 7 4 4 3 2 3 3 3 4 3 6 4 9 9 9 9 9 8 9 8 8 8 7 7 5 4 3 1 1 2
4 3 3 6 6 4 2 2 1 1 1 3 5 5 6 7 4 4 5 4 9 9 7 7 8 6 12 12 12 11 12 11 10 10 7 4 3 5 6 6 6 6 6 5 5 5 7 8 8 8 8 7 7 7 7 7 7 6 7 7 7 7 7 7 7 8 7 7 6 5 5 3 3 3 7 9 8 3 4 8 9 10 10 9 10 7 8 7 8 7 6 6 3 1 0 1 2
2 3 4 7 5 2 1 5 3 1 2 1 3 4 8 7 3 3 5 9 9 6 4 8 9 11 13 11 12 11 9 9 9 9 1 1 1 1 3 2 5 6 6 5 3 7 9 10 9 9 8 6 3 2 6 7 6 6 5 6 6 6 5 5 5 6 7 7 6 6 5 4 4 4 2 3 3 3 1 2 3 3 3 3 8 2 3 4 4 2 2 2 1 1 1 0 1
1 8 9 7 2 1 4 4 4 1 4 4 2 8 3 4 3 5 6 5 3 3 3 6 10 14 15 13 10 9 8 9 8 8 8 6 6 7 4 3 5 6 7 7 6 9 10 9 8 8 8 8 6 2 1 4 6 5 4 5 6 5 6 5 5 5 5 6 5 5 6 6 5 5 3 3 4 4 3 3 3 3 2 3 3 4 3 3 2 2 2 2 2 2 2 1 1
6 4 4 4 2 2 0 3 1 0 1 2 1 1 0 4 4 1 5 1 2 1 2 5 7 7 9 10 9 7 7 9 7 9 8 7 5 5 7 5 8 8 7 8 5 3 4 5 5 6 5 5 6 6 4 4 2 2 3 4 5 4 5 6 5 5 5 5 5 5 6 6 6 5 4 4 5 4 4 4 4 3 3 3 3 4 3 3 3 3 3 3 2 2 2 1 2
3 3 1 3 4 3 5 6 7 1 6 1 1 2 3 1 2 2 4 5 3 4 8 7 9 8 7 6 4 7 9 10 8 8 10 10 9 9 10 8 3 4 4 3 4 4 5 6 7 9 8 9 7 6 5 2 2 5 5 6 5 5 5 5 5 5 4 5 5 5 4 5 6 6 5 5 5 4 4 4 4 4 4 4 3 4 4 3 4 3 3 2 3 3 2 1 2
8 3 3 2 2 0 1 1 4 2 1 1 5 3 0 2 0 2 2 4 6 6 11 7 11 10 8 7 4 3 3 2 3 2 1 3 6 3 1 6 5 5 4 3 4 5 3 4 8 10 10 10 9 10 11 6 2 3 4 7 7 8 5 5 5 5 5 5 5 5 4 5 5 5 6 5 5 5 4 4 4 5 4 4 4 4 4 4 4 4 4 4 3 3 3 2 2
1 1 0 3 1 4 3 4 3 2 1 2 0 3 4 1 5 0 4 4 5 9 13 7 10 11 8 6 5 6 5 4 5 5 7 5 1 3 2 7 6 5 3 3 4 4 3 4 6 7 8 8 8 8 8 9 8 5 5 5 6 9 7 6 5 5 5 5 5 5 5 5 5 6 6 5 6 6 5 4 5 5 6 5 5 6 5 4 5 4 4 4 4 4 3 3 3
1 2 1 0 2 3 1 2 4 3 1 2 0 1 3 4 3 1 2 2 5 10 9 7 11 9 6 5 4 4 7 4 8 6 3 3 4 3 5 6 6 6 5 4 3 5 5 6 6 8 9 9 8 8 7 7 6 6 4 5 6 7 8 8 6 5 5 5 5 5 5 4 5 6 6 6 5 5 5 5 5 5 5 5 6 6 5 6 5 6 6 6 5 5 5 4 4
1 2 2 3 4 3 2 3 8 4 3 3 2 2 1 4 2 3 1 4 8 10 7 6 8 6 6 5 8 8 9 5 2 5 7 5 7 7 6 7 7 7 8 7 7 6 7 8 10 10 10 10 9 9 8 7 7 6 4 5 7 7 7 9 9 7 6 5 4 5 4 4 4 5 6 5 5 6 5 5 5 5 6 5 6 6 6 6 7 7 6 5 6 5 5 4 5
1 5 3 6 7 6 2 1 4 2 2 1 1 3 4 5 0 3 1 3 9 10 5 5 6 5 8 13 15 14 10 9 7 5 2 2 3 3 5 4 9 9 4 6 6 7 8 9 9 9 9 9 10 10 9 8 7 7 6 5 6 6 6 5 8 9 8 7 6 6 5 5 4 5 5 5 5 6 6 6 6 6 6 6 6 7 6 6 6 5 6 5 4 3 3 4 3
3 3 1 4 6 7 7 0 1 0 2 2 4 3 7 6 6 4 6 4 7 8 7 5 4 8 13 14 16 15 14 14 12 9 8 4 3 3 4 0 1 1 2 3 4 7 3 2 1 5 7 10 11 9 8 7 8 8 8 6 4 5 5 6 5 6 9 9 8 7 7 7 5 4 4 5 5 5 6 6 7 7 6 5 6 6 6 6 7 6 6 5 6 5 5 6 5
3 1 4 1 2 4 5 1 1 1 0 1 3 1 7 7 5 2 4 5 5 4 5 7 12 15 13 13 13 15 13 13 12 12 12 11 6 5 4 3 1 1 1 2 5 2 7 2 1 0 4 5 5 6 8 8 7 7 8 7 6 5 5 6 4 3 5 8 9 8 8 7 6 5 4 5 5 5 6 6 7 7 6 6 6 6 7 7 7 7 6 6 6 6 6 5 6
1 3 4 4 3 7 4 6 4 4 1 5 6 2 3 6 4 6 3 6 8 8 14 15 15 14 14 12 12 12 10 11 13 13 11 10 8 6 4 2 1 1 2 4 5 4 4 2 1 1 1 3 5 6 6 8 9 8 8 9 7 7 6 5 7 6 2 1 2 7 8 7 6 6 5 5 5 5 6 7 7 7 7 6 6 6 6 7 7 7 6 7 6 7 6 6 6
4 3 4 5 0 7 3 2 4 8 1 3 4 3 5 5 8 11 16 10 16 19 17 12 13 14 12 11 9 8 10 10 12 10 9 7 5 4 3 3 4 3 3 5 5 4 1 1 0 0 3 3 3 4 6 7 9 11 10 10 10 9 8 7 7 7 6 5 1 2 5 8 7 5 3 1 2 5 6 7 7 8 7 7 7 6 7 8 7 8 6 6 7 7 7 7 5
3 3 1 2 0 1 1 2 3 1 3 3 6 9 3 2 10 17 15 11 19 16 14 14 13 11 10 9 10 9 8 9 10 8 6 5 4 3 2 2 2 2 2 2 3 3 2 2 3 4 2 3 3 3 5 6 7 8 7 7 9 8 9 8 6 7 7 7 7 6 4 5 7 9 8 6 5 4 5 7 7 9 8 7 7 7 8 8 7 8 7 6 7 7 7 7 7
2 1 2 4 1 3 2 2 2 1 2 12 7 10 4 5 11 12 11 14 18 16 12 12 12 10 8 9 10 10 10 10 7 5 5 5 4 2 1 1 0 1 2 2 2 4 4 1 2 3 5 5 5 4 4 4 4 5 5 6 8 10 9 8 6 7 8 8 8 8 8 7 6 7 8 9 7 6 5 2 9 11 8 8 8 7 8 8 8 8 7 6 4 6 8 7 8
1 0 1 1 5 4 4 3 3 2 7 11 10 6 6 9 10 10 12 13 15 13 11 11 10 7 6 8 9 9 8 7 4 5 6 6 5 6 5 4 4 2 1 1 3 4 4 2 0 2 3 4 3 4 4 4 5 7 8 6 7 9 10 9 8 9 7 8 9 9 8 8 8 8 7 6 7 8 8 8 5 6 10 7 8 8 8 7 9 8 7 6 6 3 3 6 5
1 2 4 4 5 2 2 4 4 3 11 6 7 8 8 7 8 8 8 13 13 14 13 10 8 8 8 8 9 9 8 5 4 6 8 8 9 10 9 6 5 4 3 3 4 5 4 2 1 2 3 4 5 5 6 6 5 4 4 8 9 8 8 8 8 8 8 8 9 9 9 8 8 8 7 8 8 7 8 9 10 6 2 10 9 9 8 8 8 7 7 4 6 5 4 3 4
1 2 5 4 4 3 1 2 5 4 6 0 8 14 11 9 8 8 7 15 11 10 9 8 8 7 7 9 11 11 7 7 11 12 12 11 11 12 11 10 9 8 6 5 6 6 5 3 2 3 2 4 5 6 6 6 7 3 1 4 4 5 6 8 10 9 9 7 7 8 8 8 8 9 9 9 9 8 6 6 8 9 6 3 11 7 8 8 7 6 5 4 3 7 5 5 6
3 3 1 3 1 1 3 1 4 5 10 1 9 13 6 5 5 6 9 9 7 7 9 7 8 9 8 10 10 10 11 10 10 10 10 11 12 11 10 10 11 8 5 4 4 6 7 6 4 3 4 5 6 6 5 5 2 5 3 4 9 10 6 7 6 7 7 8 7 6 7 7 8 7 8 9 9 7 6 5 6 8 9 6 4 11 6 7 7 7 6 7 4 2 3 4 7
4 5 4 0 2 3 1 4 4 8 4 5 6 12 5 5 3 5 4 6 7 8 9 9 9 9 8 8 8 9 9 9 9 8 9 9 9 10 10 10 10 10 11 8 8 6 5 7 7 3 5 5 5 7 6 4 5 4 10 7 3 4 4 3 2 1 3 4 7 6 5 5 7 7 8 8 9 9 8 8 7 9 9 11 10 10 8 8 7 5 5 5 6 5 3 4 4
3 3 4 0 0 2 2 1 3 8 7 3 7 7 4 6 4 4 3 3 8 4 8 8 7 7 5 5 7 7 8 8 8 8 8 9 10 8 7 9 9 10 10 9 10 8 6 6 6 6 3 5 6 5 5 6 5 9 7 1 3 3 4 3 3 1 2 2 2 4 7 5 6 7 8 10 10 10 10 9 10 9 9 11 11 11 10 8 8 7 7 5 6 6 6 2 3
2 3 2 1 0 1 2 2 2 2 1 3 2 4 2 5 4 1 2 6 8 4 10 9 8 8 9 10 9 8 7 6 7 6 5 5 7 9 9 10 11 10 10 10 9 9 9 10 8 8 7 3 6 3 7 9 7 8 3 1 3 4 1 2 2 5 1 3 4 0 2 3 4 6 8 9 10 8 10 11 10 10 10 9 10 11 9 7 7 7 7 6 6 4 6 4 3
2 1 2 2 2 2 0 0 4 0 3 4 1 4 2 4 2 1 1 7 7 7 10 9 9 9 9 9 10 10 10 10 8 6 5 6 6 7 8 8 8 10 10 10 9 9 11 11 10 8 7 6 3 3 8 9 9 4 5 3 3 6 5 3 1 2 5 6 1 1 0 1 3 4 5 6 8 9 9 9 10 9 9 8 8 8 9 9 8 7 6 7 7 6 4 6 6
1 3 2 3 8 6 3 6 5 2 0 2 5 5 5 0 1 1 3 9 6 9 8 9 9 10 10 8 9 8 8 7 8 9 9 6 5 6 7 7 8 7 8 10 11 10 10 10 10 10 9 7 5 3 4 6 5 5 8 10 9 7 7 8 11 7 7 7 7 7 5 5 4 4 5 6 7 7 7 8 8 9 9 9 8 8 9 8 7 6 7 8 7 7 8 8 7
3 2 4 1 9 6 8 8 5 2 4 3 4 3 5 1 4 4 1 6 6 6 6 5 7 6 6 6 7 7 6 6 6 7 7 7 7 7 7 8 8 10 10 10 10 9 9 9 9 9 10 9 7 3 3 4 3 0 4 7 9 8 7 4 5 7 10 9 8 5 7 7 6 5 5 6 6 7 7 7 7 8 9 9 10 9 8 9 11 10 8 7 7 7 8 8 8
3 2 3 5 5 4 7 6 5 1 3 3 5 1 4 1 4 3 2 5 3 2 3 3 3 4 5 5 5 5 5 5 6 6 5 6 6 7 7 8 11 10 9 10 12 11 11 9 10 10 10 9 8 4 4 4 3 6 7 7 7 6 7 7 6 6 3 2 7 7 7 7 7 7 6 7 7 7 7 7 7 9 10 9 9 11 10 10 10 11 11 10 9 10 8 9 9
5 2 3 6 6 3 3 5 4 4 0 5 6 4 6 1 4 3 1 2 3 3 0 0 2 4 4 3 4 4 4 4 4 5 5 5 6 7 8 10 11 13 12 11 11 12 12 11 10 10 10 10 9 6 4 6 2 6 7 7 7 7 7 7 7 7 5 4 6 6 6 6 6 8 8 7 7 7 8 8 9 9 8 8 9 10 11 11 11 10 9 10 11 11 9 8 7
4 2 3 5 3 5 4 3 5 2 2 5 3 3 4 4 2 1 1 3 5 6 4 3 4 4 3 2 2 2 3 3 3 3 4 5 6 7 7 9 9 10 11 14 12 12 12 11 10 11 11 11 10 9 6 5 4 5 7 8 9 9 7 7 8 9 8 9 7 7 6 5 6 6 7 7 7 8 8 8 8 9 9 8 9 9 8 8 9 9 8 9 9 9 7 6 7
10 6 7 5 1 2 1 4 1 1 1 2 5 3 3 1 3 6 3 5 3 4 5 4 4 2 1 1 1 3 2 2 3 2 3 4 4 5 7 8 10 11 9 11 13 12 12 11 10 10 12 11 11 10 8 7 4 6 7 8 7 8 9 9 9 9 8 8 8 7 6 6 6 6 7 9 10 11 9 9 8 7 7 7 2 2 3 6 7 8 9 9 8 8 7 7 8
7 3 3 4 1 1 0 1 0 1 3 2 6 3 2 2 1 5 7 4 6 5 5 5 5 4 3 2 1 2 1 1 2 2 3 2 3 4 5 6 7 8 10 11 11 11 12 11 10 9 11 11 10 10 9 8 8 7 7 7 7 7 7 10 9 9 10 9 7 8 8 8 7 8 8 9 10 12 11 10 9 6 2 3 6 7 8 9 9 10 10 9 9 8 8 11 11
1 2 5 3 5 2 2 1 2 4 4 0 2 3 3 4 3 3 6 7 6 5 4 4 4 5 4 2 2 1 1 1 1 3 2 3 4 5 6 8 8 8 9 10 9 10 11 11 11 11 12 12 11 11 9 9 10 7 6 7 7 7 8 8 8 8 9 9 7 7 7 7 8 8 9 9 7 7 9 9 8 7 6 5 8 10 10 10 10 10 9 10 9 9 11 11 10
2 2 4 6 0 5 1 3 4 3 4 1 1 2 3 4 1 2 2 4 4 3 4 2 4 3 2 3 2 1 0 0 1 1 2 3 4 4 5 6 8 8 9 9 10 9 9 11 11 12 11 11 11 11 11 10 10 9 6 7 9 8 8 7 7 7 8 8 9 8 9 8 7 6 4 5 7 8 7 5 6 8 7 2 3 5 7 7 6 6 7 9 11 9 10 12 11
3 3 0 2 5 5 2 2 1 5 5 0 0 1 1 3 2 3 2 4 2 2 4 4 4 2 2 2 2 1 0 0 0 1 1 2 2 3 3 4 6 8 9 9 9 9 9 10 11 13 13 11 12 11 11 10 9 8 9 8 8 7 8 9 9 10 10 9 8 7 8 8 6 6 6 4 4 4 4 6 8 8 7 9 11 11 7 7 11 8 8 8 10 8 8 10 10
2 2 2 1 2 5 4 2 2 1 3 2 1 3 1 2 2 1 3 1 1 3 5 5 2 1 3 1 1 1 1 0 1 1 2 1 1 3 4 4 4 6 7 9 10 8 8 8 9 11 11 12 13 12 11 11 9 7 8 7 7 8 8 9 8 9 8 7 7 7 7 6 8 8 7 5 4 5 6 8 9 8 7 7 9 10 11 14 13 8 8 9 9 8 9 8 9
2 2 1 4 1 1 4 3 0 1 0 1 0 1 1 3 2 2 2 3 4 6 6 2 2 2 2 0 2 2 3 1 1 2 1 2 3 3 4 5 5 5 6 7 8 9 8 8 8 8 10 10 10 10 10 10 7 5 5 5 4 4 4 5 6 7 5 6 8 7 6 7 6 4 6 7 7 7 7 7 7 7 7 9 9 9 8 8 9 11 10 8 8 9 10 11 10
2 2 5 1 5 2 1 2 3 4 1 2 1 0 1 4 3 4 3 4 5 5 4 5 4 3 3 2 2 3 3 1 0 0 0 1 2 3 4 5 6 7 7 7 8 8 9 8 8 9 10 10 10 12 11 9 8 5 6 5 3 3 4 6 7 6 7 7 6 6 8 8 9 6 5 4 5 7 8 8 7 8 9 8 9 9 9 11 12 11 10 8 10 10 11 12 10
6 7 4 5 1 2 3 1 1 1 2 4 4 1 4 3 2 5 6 5 5 4 3 4 4 4 3 2 3 3 2 0 1 2 2 2 2 3 4 4 4 4 5 6 7 8 8 7 8 9 10 10 10 11 11 10 9 7 5 5 5 4 3 4 6 6 7 7 7 8 8 7 6 8 8 8 8 8 6 7 7 8 9 9 10 10 9 11 11 11 11 11 12 10 12 12 9
2 1 0 2 1 2 0 2 3 2 2 1 4 4 3 4 2 5 4 4 2 3 6 5 5 4 3 3 4 2 0 2 4 3 3 2 2 3 4 4 4 5 7 8 8 8 9 9 8 9 10 9 9 10 10 11 9 8 6 5 5 4 4 4 5 4 6 7 7 7 6 3 5 6 8 9 10 10 9 8 7 2 5 6 7 8 9 10 11 11 11 10 11 12 13 13 10
Wind_Direction
300 11 59 131 92 72 63 5 54 307 63 258 272 306 255 247 241 287 274 301 320 265 93 93 104 127 199 172 112 99 136 141 184 130 204 229 150 136 129 114 122 127 132 147 154 151 151 149 147 146 145 142 138 138 137 135 133 131 130 128 126 125 123 121 120 119 119 118 117 116 115 115 114 113 112 110 112 113 113 115 114 115 114 115 115 115 115 114 113 111 109 106 104 103 102 101 100
287 342 40 143 117 84 336 145 102 350 32 13 256 150 249 274 319 254 265 267 254 287 120 103 67 78 91 106 114 92 63 265 169 182 67 108 104 129 128 127 134 136 144 149 152 150 152 151 147 147 148 145 140 140 140 138 136 134 132 131 130 129 128 126 124 123 122 120 119 118 117 117 116 114 112 111 111 113 115 117 118 117 116 116 116 116 116 114 114 110 109 108 105 104 102 99 96
295 24 26 53 27 107 252 44 227 195 138 256 273 214 287 299 262 257 249 257 269 252 198 134 120 110 117 113 113 115 241 303 121 125 123 142 105 151 133 137 145 140 144 149 152 153 150 152 149 148 149 148 143 143 142 141 139 136 135 134 133 133 131 130 128 126 123 122 121 119 119 119 117 117 114 113 114 116 119 120 119 120 119 118 118 116 116 115 115 112 109 107 107 102 97 94 89
201 78 105 69 326 13 63 20 104 140 168 213 265 276 244 257 271 269 275 276 265 276 291 63 86 110 121 160 141 67 102 170 176 139 141 176 153 149 139 138 137 134 141 146 152 154 150 153 151 151 149 147 144 147 145 144 143 139 137 137 136 135 133 132 130 129 126 124 123 122 122 121 120 119 118 116 117 119 118 122 123 121 121 120 119 118 117 116 116 113 110 108 106 99 93 91 85
65 149 108 88 109 347 102 198 175 121 211 215 228 261 265 256 267 283 299 316 262 177 281 112 68 44 135 125 107 138 200 101 163 172 121 123 127 137 136 134 136 141 146 150 152 151 154 153 152 152 151 147 145 149 148 147 145 143 140 138 137 135 134 132 132 130 128 126 126 125 125 124 122 121 119 118 118 120 122 121 122 124 123 121 120 119 117 116 116 114 111 110 105 98 95 90 81
47 72 343 98 146 198 40 330 309 230 227 186 263 261 269 276 292 297 293 276 248 279 144 168 138 145 110 186 171 148 153 148 183 183 142 143 139 138 137 139 142 146 148 149 152 152 154 155 154 153 151 148 146 148 148 148 146 144 141 139 138 136 134 133 133 132 130 128 128 128 128 127 125 122 120 120 121 122 125 126 128 127 126 123 121 118 118 116 116 115 113 110 102 98 92 82 74
335 30 1 23 341 61 165 181 239 220 267 208 250 275 277 289 281 292 289 306 301 271 193 189 116 123 88 145 48 7 161 148 146 159 152 147 137 142 144 145 145 146 146 148 150 153 155 154 155 152 150 148 148 147 149 148 147 143 140 139 139 137 136 135 134 134 132 131 130 130 130 129 127 125 122 123 124 124 124 126 125 125 126 124 122 120 119 118 118 117 115 108 101 97 89 76 68
98 99 288 108 275 63 261 228 244 180 272 224 243 263 274 274 281 285 286 288 292 323 158 159 132 108 222 229 132 268 111 299 123 126 129 138 138 144 148 148 146 145 142 144 147 150 155 153 154 151 149 148 147 147 148 149 147 144 142 140 139 138 138 138 137 136 135 133 132 131 131 131 130 127 126 124 124 124 122 121 122 125 126 123 122 121 118 117 116 117 114 108 103 98 84 71 67
347 84 330 70 318 346 322 258 249 242 276 283 276 267 278 284 287 283 289 280 281 260 247 178 139 110 150 74 48 319 15 90 101 118 131 138 142 147 147 148 143 142 142 146 148 151 150 155 153 151 149 149 147 147 150 150 148 146 144 142 141 141 140 140 140 139 138 135 134 132 133 133 133 130 127 126 126 126 125 122 121 122 123 123 121 117 113 114 116 116 115 110 107 99 84 74 69
341 102 254 154 142 254 298 301 328 249 246 252 259 269 277 285 285 281 274 286 268 262 256 47 88 105 99 80 88 33 76 110 114 111 128 141 144 145 147 153 148 146 149 151 153 152 154 156 154 151 150 149 148 147 147 148 148 146 144 143 143 142 140 141 141 141 138 136 135 135 134 136 135 132 129 129 129 128 125 122 119 117 121 124 123 115 113 113 115 116 115 113 109 100 86 77 71
305 5 159 63 67 231 260 277 281 300 279 287 282 277 269 273 269 278 272 261 276 273 292 92 100 118 97 56 81 259 32 72 107 112 95 108 138 145 147 149 148 151 156 157 155 153 156 158 156 154 152 150 149 148 147 147 148 146 144 143 143 141 139 141 142 142 139 138 138 138 138 138 138 133 132 132 133 129 127 124 120 118 120 125 124 118 116 117 118 118 116 114 110 103 91 79 70
12 142 59 153 190 167 236 222 282 278 281 289 287 282 290 279 284 280 282 281 289 334 346 129 149 114 89 125 130 357 67 80 106 108 104 98 105 116 132 139 147 151 151 150 150 152 152 154 154 155 153 150 149 148 147 147 148 147 145 144 143 142 140 142 143 143 142 142 142 142 142 142 139 137 136 136 135 132 130 129 123 121 123 125 125 124 121 121 123 124 123 119 118 106 96 86 72
149 134 79 87 224 142 226 273 262 265 296 271 263 313 295 298 310 310 280 38 58 44 27 115 147 102 107 94 359 19 85 105 104 114 109 100 104 106 112 126 138 132 131 128 132 136 140 145 150 152 152 150 145 144 144 144 145 146 145 143 143 143 142 143 145 144 144 145 145 145 144 142 140 140 137 139 136 135 133 132 127 125 127 130 131 130 127 124 128 130 128 126 124 117 105 87 74
139 176 120 212 203 177 174 235 272 327 274 286 332 288 312 12 332 332 332 43 19 58 49 100 89 100 99 103 54 147 194 133 127 115 110 111 115 115 114 107 113 123 130 134 133 133 134 141 148 149 152 147 146 142 144 144 145 147 147 145 144 144 144 144 145 146 148 148 152 149 146 146 145 142 142 141 140 135 136 134 132 128 130 133 135 135 132 132 134 135 132 132 131 125 106 88 80
198 168 92 145 322 52 256 210 229 227 270 3 306 336 314 353 21 2 20 341 29 341 136 96 134 93 209 138 205 192 180 160 136 131 105 99 105 112 113 117 122 123 120 121 128 134 127 126 143 145 144 143 143 141 143 147 146 147 148 147 145 145 146 145 147 149 153 155 155 154 151 152 148 148 147 147 144 142 140 141 137 134 133 135 139 140 138 139 141 141 142 141 140 127 102 83 74
174 116 104 125 246 190 272 217 230 245 275 308 303 341 9 341 16 32 350 0 291 335 14 25 306 147 171 154 178 183 140 142 141 120 104 101 101 97 103 110 116 115 118 122 124 126 128 123 115 142 146 146 145 145 145 146 148 148 149 148 148 147 148 148 150 155 158 160 161 158 156 153 153 154 154 152 153 151 150 148 147 141 140 141 143 147 146 144 147 149 154 152 145 126 99 83 73
76 110 256 191 271 202 260 214 214 285 260 310 324 17 23 343 325 26 321 33 36 9 46 17 20 71 155 211 163 144 127 113 114 99 83 76 89 99 92 89 95 102 116 127 132 127 124 124 132 128 142 144 143 144 147 148 152 149 150 151 153 152 152 152 151 157 161 165 166 164 160 148 135 148 153 145 163 157 158 159 154 151 151 149 153 153 151 150 151 155 165 164 150 128 110 93 79
84 171 157 258 213 240 229 247 165 224 57 321 342 357 24 13 340 338 1 8 16 36 52 41 55 56 56 56 82 83 85 92 77 81 79 69 51 54 72 82 101 111 101 107 112 129 124 118 125 128 136 148 149 144 148 154 154 151 149 152 152 158 159 157 155 157 159 160 171 168 138 144 131 127 130 164 138 171 168 166 163 160 159 159 160 159 156 156 155 161 174 168 152 134 115 50 63
142 189 127 222 201 237 189 236 354 22 324 290 336 20 37 360 331 332 38 360 13 42 50 45 56 65 63 68 82 85 82 59 48 53 66 69 71 78 100 116 100 93 84 89 117 127 127 125 130 136 147 153 154 149 150 155 154 152 152 151 156 159 163 160 158 161 151 156 161 139 128 126 128 126 149 161 154 177 181 174 172 171 167 167 168 163 162 162 159 171 180 173 159 139 60 39 47
220 118 184 240 214 235 275 79 131 212 239 356 3 349 44 345 11 316 42 350 28 35 52 46 84 79 87 95 87 85 81 72 51 33 31 65 93 142 159 167 126 129 135 159 154 130 136 146 150 148 151 156 158 156 148 149 149 155 153 150 155 154 159 158 162 158 156 156 153 137 135 136 131 139 174 178 176 172 190 182 183 179 174 172 172 164 166 167 169 176 185 177 161 94 59 37 54
258 117 184 223 220 245 283 139 185 205 84 27 26 359 23 344 350 25 355 34 1 7 57 121 121 116 111 108 107 106 112 114 113 100 356 326 102 162 203 144 133 138 146 146 136 150 159 160 153 148 144 141 132 146 144 141 142 143 144 143 144 146 143 143 151 151 158 156 151 149 149 147 149 158 167 171 144 145 199 188 190 183 175 177 175 131 152 171 166 190 203 179 270 207 225 301 98
144 198 209 212 139 181 235 170 172 65 104 94 64 50 313 303 52 16 35 56 328 4 352 108 129 132 127 124 129 134 133 122 138 134 185 188 179 187 204 169 111 119 139 143 163 169 167 159 151 147 145 138 121 70 66 130 131 133 139 140 137 142 138 143 143 145 156 159 151 157 155 152 158 167 178 165 151 148 174 194 194 180 181 194 164 162 162 162 173 201 209 210 235 254 236 252 178
220 280 232 219 206 215 172 156 245 131 70 72 44 199 215 29 323 5 20 17 261 276 94 89 110 108 115 120 126 128 127 144 157 169 178 181 190 210 203 186 150 144 152 165 147 116 118 130 130 125 107 88 96 108 98 69 75 121 131 137 135 149 139 142 148 145 163 160 160 163 163 163 163 172 179 165 163 163 177 190 190 189 185 200 178 170 179 174 184 198 206 219 241 251 259 242 153
166 222 267 252 160 192 206 170 196 122 112 63 177 99 88 40 9 305 6 293 305 8 86 88 97 93 92 92 124 143 151 164 172 180 176 186 189 199 196 188 132 130 105 87 77 91 104 115 123 115 106 101 80 53 36 22 147 160 168 162 151 163 149 152 152 155 163 170 169 174 168 166 167 174 181 169 172 166 189 187 185 193 191 203 191 185 176 185 194 206 204 219 222 237 251 230 155
174 178 246 275 97 36 352 11 21 34 184 151 48 10 148 169 177 5 301 289 306 23 51 63 93 89 84 94 104 115 129 157 178 222 252 254 212 207 90 53 66 73 94 92 89 101 115 124 126 122 122 126 140 149 143 153 258 252 197 174 164 169 162 167 158 155 170 179 181 182 173 172 174 179 182 177 160 183 186 187 187 199 195 195 185 203 190 188 202 206 205 207 213 234 246 217 182
32 97 338 11 18 5 350 28 28 342 150 77 44 329 294 212 186 244 237 277 358 89 90 93 82 77 72 88 114 124 135 151 173 168 205 214 144 154 87 66 87 87 74 76 96 89 82 86 101 121 131 140 151 155 165 164 163 187 210 213 190 167 165 162 162 166 174 177 192 194 186 176 181 184 185 176 169 186 186 191 197 204 201 193 190 200 199 194 199 206 212 209 206 220 226 214 183
213 67 119 14 321 359 34 30 310 290 26 145 55 273 301 340 63 291 304 46 77 68 80 82 92 101 112 112 121 111 88 86 156 168 136 157 161 145 97 104 104 123 112 107 124 126 124 120 134 150 156 160 154 154 173 184 153 153 185 205 200 188 167 157 165 174 176 182 192 197 200 190 179 189 188 182 179 181 186 193 208 207 211 202 200 202 196 201 203 201 200 203 205 211 215 205 186
12 115 7 339 8 355 298 339 308 3 338 8 72 313 303 325 120 197 261 29 111 88 72 68 83 98 113 92 54 36 43 5 14 134 158 159 182 174 146 140 140 150 149 168 174 161 151 157 163 173 169 166 162 172 177 175 167 165 170 188 197 193 182 173 167 174 186 182 179 193 206 204 188 193 190 186 187 183 187 198 212 211 217 213 205 201 201 201 207 208 204 204 209 202 210 209 198
84 64 4 312 354 356 320 253 283 85 285 108 129 30 354 342 242 294 285 137 93 102 81 65 85 93 63 64 65 55 50 68 52 349 217 182 127 93 144 168 163 171 186 160 163 169 175 171 166 176 168 169 173 176 177 179 170 168 169 204 202 188 181 196 184 176 179 183 177 181 196 206 204 193 194 193 189 191 191 198 211 216 219 216 209 207 205 208 213 214 215 209 209 213 205 216 207
14 28 130 358 6 337 283 215 280 68 260 78 75 342 300 279 278 232 162 121 87 63 79 76 60 51 60 69 71 65 48 47 38 33 23 11 55 106 123 76 26 65 133 172 157 198 178 65 105 167 181 180 183 177 170 170 172 178 171 177 233 226 188 184 204 194 181 183 181 176 182 199 206 198 196 199 192 193 199 204 211 217 219 217 215 210 211 208 213 208 214 193 206 197 210 210 190
354 327 53 94 33 274 296 181 86 120 95 103 74 229 281 305 290 240 203 127 110 79 77 52 54 67 62 57 60 67 64 55 49 47 37 41 45 36 62 42 65 77 86 170 207 43 47 37 20 284 194 199 194 181 174 175 180 189 171 170 185 219 215 191 187 250 215 191 181 179 180 184 195 197 202 200 201 197 204 210 212 219 216 213 214 215 214 217 214 214 198 198 206 205 205 205 192
30 40 311 331 157 273 290 269 141 174 291 97 81 43 271 338 336 315 359 84 89 71 44 51 66 68 66 63 63 64 63 63 60 49 45 47 37 27 17 11 352 349 352 356 4 41 58 19 17 334 254 218 195 192 189 181 181 191 186 175 177 187 219 209 190 185 197 324 190 164 166 177 183 190 192 196 206 207 211 214 215 214 217 212 218 216 216 220 223 222 205 195 195 214 196 199 194
359 135 250 291 177 253 353 342 167 170 140 37 94 41 344 24 356 23 14 9 61 67 71 61 61 63 64 70 71 68 66 62 62 57 52 54 39 41 24 356 2 359 3 6 355 349 82 83 111 273 231 238 229 204 193 194 193 193 199 178 182 183 200 211 202 179 161 162 201 166 149 143 134 121 115 131 230 225 217 219 219 216 212 212 211 216 216 220 218 224 211 204 188 191 191 182 191
321 6 237 233 302 330 33 321 45 85 113 49 35 86 38 328 44 62 64 79 81 74 70 65 57 57 53 62 67 64 58 60 61 65 66 68 60 42 12 348 2 360 352 3 320 325 314 209 173 184 200 220 240 243 206 208 220 214 218 187 172 186 207 209 201 182 177 175 170 181 186 169 161 158 151 134 113 67 360 317 264 219 211 212 211 208 216 220 218 216 207 209 188 172 178 172 186
334 333 21 332 358 37 85 101 260 72 47 89 79 79 72 55 63 61 73 64 75 78 73 69 65 59 50 55 60 57 59 53 31 33 58 70 79 138 194 247 41 28 3 2 315 321 337 311 191 197 190 199 201 201 226 210 214 235 235 194 189 197 198 198 195 199 189 180 185 181 178 182 187 191 176 157 140 132 118 61 317 292 235 208 211 205 215 218 215 214 200 200 191 184 171 181 180
286 184 185 86 63 354 53 329 329 115 65 73 69 85 53 48 54 61 60 66 71 73 65 63 61 52 54 62 60 54 53 52 29 18 9 27 26 19 12 3 5 356 323 337 309 311 315 339 254 195 196 199 203 196 182 211 204 204 205 216 208 205 204 196 193 205 193 188 192 182 179 176 178 182 167 160 159 154 154 160 166 290 296 260 209 209 212 212 208 206 208 183 178 208 227 174 167
314 26 47 49 90 345 330 6 9 44 83 50 96 71 57 48 64 62 74 75 65 68 70 65 63 60 51 50 61 65 48 31 8 32 24 9 5 2 356 2 16 43 25 325 328 305 295 276 321 261 219 194 195 204 201 190 207 229 241 220 219 216 207 202 197 201 199 200 191 189 182 174 170 170 161 161 178 179 180 174 153 149 300 293 250 211 201 208 212 198 195 196 173 177 213 194 180
341 57 55 44 76 61 289 34 341 344 100 218 95 71 51 55 51 51 59 72 68 74 78 70 65 62 59 53 48 53 61 37 33 31 23 19 9 4 358 355 357 10 356 10 7 336 303 302 222 251 224 206 211 214 218 202 179 142 260 321 349 305 229 208 210 199 195 194 198 195 185 178 172 169 165 176 191 181 183 185 155 147 144 271 294 242 195 200 208 214 183 202 217 174 200 178 179
39 119 132 54 342 220 287 343 25 61 81 306 87 82 61 28 41 48 63 75 86 85 83 89 80 63 51 51 54 53 55 51 42 39 29 18 10 6 5 356 345 334 335 3 355 1 344 328 292 221 228 213 218 216 214 216 138 121 100 233 207 223 224 225 228 208 181 184 197 204 196 185 175 175 172 178 186 193 196 178 176 166 158 150 262 275 207 194 194 204 198 183 211 241 193 196 177
77 28 53 233 253 84 320 306 52 37 111 178 106 100 78 19 0 50 38 77 82 79 83 80 82 77 66 61 59 58 57 59 57 43 26 18 16 8 3 358 349 342 339 347 354 356 345 340 333 285 224 227 227 221 218 205 190 216 206 227 314 348 331 308 265 170 168 161 202 205 223 197 180 180 182 182 187 188 182 188 182 189 181 162 185 227 239 195 186 200 210 206 169 200 204 228 211
331 107 129 136 83 248 145 234 82 92 56 75 68 59 3 11 359 5 20 54 75 63 78 71 67 82 94 87 64 66 66 60 55 46 35 20 14 9 360 353 353 355 343 343 343 340 336 333 322 326 275 227 228 220 200 265 204 234 228 360 23 30 340 9 305 277 166 166 174 208 223 208 191 189 189 192 192 191 187 189 186 194 186 186 182 202 215 201 190 186 191 195 194 186 216 211 243
326 284 170 188 223 240 303 277 67 31 1 347 104 52 321 299 318 314 294 60 53 47 63 57 57 54 51 48 51 51 58 66 70 62 49 35 16 2 7 2 358 352 350 339 339 338 339 332 333 333 332 270 241 214 166 220 216 208 218 102 295 326 255 23 328 311 264 157 177 200 295 253 229 209 201 199 197 187 192 194 191 185 195 195 195 190 194 192 191 190 191 189 202 205 186 190 219
56 261 168 177 156 124 264 350 97 52 158 287 326 132 257 319 357 320 314 69 52 33 48 46 46 46 49 46 41 40 39 31 31 39 38 33 15 14 4 2 354 352 346 337 343 344 339 336 330 332 332 330 276 212 177 209 223 183 191 131 143 182 175 188 153 301 334 327 304 151 237 257 222 221 220 208 203 201 198 196 194 192 192 197 205 194 185 188 189 189 186 191 196 192 183 201 198
304 249 149 104 77 83 80 76 103 168 189 336 18 108 139 206 287 331 342 73 49 40 33 35 34 40 43 45 45 44 40 35 34 20 12 18 14 6 356 345 353 346 338 347 344 342 339 333 331 333 333 338 315 227 198 202 210 153 179 191 200 228 226 185 175 194 194 199 213 203 162 192 205 209 215 215 210 207 205 204 199 195 195 193 194 205 193 183 181 187 188 192 190 189 192 200 200
217 247 186 140 127 144 108 92 90 143 99 344 334 74 62 265 268 329 353 79 46 43 40 33 35 42 46 45 45 41 40 37 36 28 12 2 359 354 348 345 338 345 349 342 336 331 330 332 333 334 332 333 329 265 236 221 185 357 220 206 207 219 216 210 238 208 183 187 207 199 178 175 183 197 207 212 214 209 209 210 207 208 206 198 191 195 196 184 184 183 183 184 195 198 196 202 195
277 210 84 64 74 74 105 124 117 359 72 230 230 117 116 278 288 334 349 83 80 83 72 63 55 63 57 51 50 43 42 33 28 29 14 5 353 351 349 349 354 351 342 338 335 334 333 332 333 335 328 324 321 295 267 253 158 173 219 234 227 214 195 213 219 245 280 220 193 195 190 179 178 181 198 212 211 210 210 209 218 218 214 206 198 194 188 189 191 194 191 188 190 199 201 199 206
268 46 45 46 40 40 43 64 98 65 20 245 213 138 127 169 266 215 136 186 170 192 208 317 46 50 44 56 70 57 55 46 33 16 8 360 351 355 358 0 348 348 344 341 335 332 327 328 328 330 321 317 318 308 271 274 190 193 217 230 224 231 209 207 221 243 225 239 219 210 200 197 189 184 182 197 206 207 212 209 215 223 220 217 210 198 195 191 190 195 197 192 195 201 204 199 203
80 44 109 73 18 12 27 359 40 107 265 261 208 150 107 126 275 303 186 155 156 132 124 90 62 51 50 41 37 55 65 61 27 18 351 356 6 3 359 354 346 341 341 337 331 328 326 322 324 327 325 322 319 319 303 271 244 214 220 227 224 225 215 207 218 228 222 219 220 214 204 186 194 194 182 184 199 205 211 218 218 220 220 217 216 209 203 198 192 190 196 201 206 205 200 192 200
19 46 49 103 252 37 288 16 23 138 192 260 150 130 29 352 227 177 170 161 138 138 150 127 107 109 107 160 98 53 72 60 28 15 356 11 13 7 357 348 342 339 333 326 324 323 322 320 318 326 321 322 317 314 310 296 253 238 226 226 230 224 213 214 210 221 228 223 216 218 205 203 195 199 201 193 198 199 206 213 216 218 225 225 245 322 260 206 196 201 202 207 208 201 192 188 202
12 40 104 77 59 41 145 271 260 1 307 344 138 69 94 251 339 174 161 182 157 160 147 145 145 165 186 170 139 76 67 76 47 21 21 25 23 3 353 345 338 330 326 323 321 321 320 317 314 321 319 317 315 313 309 299 280 246 241 231 222 225 224 216 210 212 223 226 222 219 213 209 200 200 204 214 206 200 203 206 203 191 150 122 141 194 215 215 199 202 206 207 209 205 192 198 209
266 278 121 160 142 158 184 203 176 192 208 286 53 68 220 154 245 197 160 162 165 149 135 151 171 181 180 143 126 78 48 23 20 28 20 30 18 8 358 347 342 332 325 324 323 320 320 320 319 321 321 320 318 312 311 298 283 267 239 240 225 216 226 223 220 213 219 224 221 219 221 220 217 217 206 207 223 231 209 198 192 184 177 167 174 199 212 209 203 204 204 204 206 207 209 205 210
280 121 80 66 113 149 136 204 146 164 120 51 313 198 166 161 241 139 138 127 115 127 135 145 200 207 114 90 117 146 201 320 354 357 19 27 24 8 347 343 337 331 327 324 322 319 323 321 320 318 314 314 316 316 312 301 282 277 252 234 230 219 222 227 231 225 224 223 222 215 222 228 233 235 229 210 205 202 207 193 175 186 192 132 41 349 348 346 311 254 227 210 211 209 216 215 215
282 52 10 212 177 104 92 9 73 88 54 290 162 348 320 309 36 119 144 120 87 102 179 193 203 174 96 144 198 200 234 244 309 338 103 52 7 341 318 324 333 337 329 321 315 313 316 320 322 322 322 322 324 320 311 305 290 277 266 237 231 221 220 223 223 223 223 225 225 221 222 227 234 238 237 217 193 193 195 187 199 197 166 163 179 199 191 229 251 249 238 230 224 215 219 225 222
75 50 251 308 66 118 121 169 340 56 142 243 84 189 205 84 229 45 121 90 243 229 213 218 221 159 125 189 206 243 246 244 266 31 90 72 339 313 319 318 327 341 322 316 314 311 311 314 316 321 324 327 326 321 316 314 311 295 281 264 239 230 226 227 231 234 230 228 228 229 227 224 220 222 221 215 183 187 193 196 202 205 187 190 201 204 197 207 214 223 229 235 234 219 220 220 221
70 194 206 93 292 358 321 91 337 84 213 215 345 248 312 161 211 85 166 200 212 221 235 249 218 164 153 220 269 284 282 340 8 40 36 356 319 311 310 304 328 347 321 308 311 310 314 319 320 322 323 325 319 316 313 316 319 289 285 283 257 244 246 251 249 247 242 231 232 232 236 239 246 231 218 209 201 194 196 204 206 203 199 203 204 205 196 209 211 221 211 214 232 234 232 227 224
34 27 19 343 100 156 56 194 177 112 212 67 281 12 231 214 217 181 200 220 216 227 246 240 221 188 199 223 248 262 287 288 350 69 231 270 272 280 291 301 339 343 329 319 318 318 324 325 324 327 329 334 335 336 329 316 315 318 338 340 311 241 239 242 242 235 228 224 219 206 208 215 221 204 207 212 211 205 201 200 205 207 209 210 209 210 197 203 210 220 218 210 222 227 238 236 230
340 24 346 353 353 210 112 7 70 169 175 167 160 248 264 269 208 164 195 210 216 194 218 205 197 210 218 222 236 262 272 257 214 207 236 240 257 276 286 293 325 327 326 326 325 322 323 326 332 335 335 334 334 340 342 329 315 317 332 332 324 324 289 266 264 243 237 230 219 218 217 218 202 208 204 204 206 206 205 211 213 215 214 210 209 210 206 214 216 216 217 215 222 217 228 236 231
148 153 111 204 47 21 85 258 345 65 83 182 124 228 273 266 210 186 177 217 202 197 177 178 197 210 229 246 262 259 211 215 203 223 226 234 257 284 291 309 333 342 344 338 328 319 338 338 339 340 335 338 333 341 344 335 325 318 320 319 317 310 310 319 312 272 238 243 237 229 221 220 210 204 190 202 212 214 210 206 207 261 268 252 230 220 209 214 222 223 222 218 221 218 224 229 223